| time (UTC) | temp F | wind direction | speed knots | gust knots | rain 1hr in | rain 24hr in | rain mn in | humidity % | barometer mb |
| 20260507101258 | 36 | 307 | 1.7 | 2.6 | 0.00 | 0.45 | 0.00 | 92 | 1011.2 |
| 20260507100521 | 36 | 307 | 0.9 | 2.6 | 0.00 | 0.46 | 0.00 | 92 | 1011.3 |
| 20260507100021 | 36 | 307 | 0.0 | 2.6 | 0.00 | 0.46 | 0.00 | 92 | 1011.2 |
| 20260507095524 | 37 | 307 | 0.0 | 2.6 | 0.00 | 0.46 | 0.00 | 92 | 1011.2 |
| 20260507095021 | 37 | 307 | 0.9 | 2.6 | 0.00 | 0.46 | 0.00 | 92 | 1011.2 |
| 20260507094521 | 37 | 307 | 0.0 | 0.0 | 0.00 | 0.46 | 0.00 | 92 | 1011.3 |
| 20260507094021 | 37 | 307 | 0.0 | 0.0 | 0.00 | 0.46 | 0.00 | 92 | 1011.2 |
| 20260507093522 | 37 | 307 | 0.0 | 0.0 | 0.00 | 0.46 | 0.00 | 92 | 1011.2 |
| 20260507093256 | 37 | 307 | 0.0 | 1.7 | 0.00 | 0.47 | 0.00 | 92 | 1011.2 |
| 20260507092522 | 37 | 307 | 0.9 | 1.7 | 0.00 | 0.47 | 0.00 | 92 | 1011.2 |
| 20260507092258 | 37 | 307 | 0.0 | 1.7 | 0.00 | 0.47 | 0.00 | 91 | 1011.2 |
| 20260507091757 | 37 | 307 | 0.0 | 0.9 | 0.00 | 0.48 | 0.00 | 91 | 1011.3 |
| 20260507091255 | 37 | 307 | 0.0 | 0.0 | 0.00 | 0.48 | 0.00 | 91 | 1011.3 |
| 20260507090522 | 37 | 307 | 0.0 | 0.0 | 0.00 | 0.49 | 0.00 | 91 | 1011.2 |
| 20260507090021 | 38 | 307 | 0.0 | 0.0 | 0.00 | 0.49 | 0.00 | 91 | 1011.5 |
| 20260507085521 | 38 | 307 | 0.0 | 1.7 | 0.00 | 0.50 | 0.00 | 91 | 1011.5 |
| 20260507085022 | 38 | 307 | 0.9 | 1.7 | 0.00 | 0.50 | 0.00 | 91 | 1011.5 |
| 20260507084536 | 38 | 307 | 0.9 | 1.7 | 0.00 | 0.50 | 0.00 | 91 | 1011.5 |
| 20260507083800 | 38 | 307 | 0.9 | 1.7 | 0.00 | 0.50 | 0.00 | 90 | 1011.5 |
| 20260507083021 | 38 | 307 | 0.0 | 0.0 | 0.00 | 0.51 | 0.00 | 90 | 1011.5 |
| 20260507082521 | 39 | 307 | 0.0 | 0.0 | 0.00 | 0.51 | 0.00 | 90 | 1011.6 |
| 20260507082022 | 39 | 307 | 0.0 | 0.0 | 0.00 | 0.51 | 0.00 | 90 | 1011.6 |
| 20260507081521 | 39 | 307 | 0.0 | 1.7 | 0.00 | 0.51 | 0.00 | 90 | 1011.6 |
| 20260507081022 | 39 | 307 | 0.0 | 1.7 | 0.00 | 0.51 | 0.00 | 90 | 1011.5 |
| 20260507080521 | 39 | 307 | 0.0 | 0.0 | 0.00 | 0.52 | 0.00 | 90 | 1011.5 |
| 20260507080022 | 39 | 307 | 0.0 | 0.0 | 0.00 | 0.52 | 0.00 | 90 | 1011.5 |
| 20260507075522 | 39 | 307 | 0.0 | 0.0 | 0.00 | 0.52 | 0.00 | 90 | 1011.5 |
| 20260507075022 | 39 | 307 | 0.0 | 0.0 | 0.00 | 0.52 | 0.00 | 90 | 1011.5 |
| 20260507074521 | 39 | 307 | 0.0 | 0.0 | 0.00 | 0.52 | 0.00 | 90 | 1011.6 |
| 20260507074023 | 40 | 307 | 0.0 | 1.7 | 0.00 | 0.52 | 0.00 | 90 | 1011.5 |
| 20260507073521 | 40 | 307 | 0.0 | 1.7 | 0.00 | 0.52 | 0.00 | 89 | 1011.5 |
| 20260507073020 | 40 | 307 | 0.0 | 2.6 | 0.00 | 0.52 | 0.00 | 89 | 1011.5 |
| 20260507072524 | 40 | 307 | 0.0 | 2.6 | 0.00 | 0.52 | 0.00 | 89 | 1011.5 |
| 20260507072258 | 40 | 307 | 0.0 | 1.7 | 0.00 | 0.53 | 0.00 | 89 | 1011.6 |
| 20260507071521 | 40 | 307 | 0.0 | 0.0 | 0.00 | 0.53 | 0.00 | 89 | 1011.6 |
| 20260507071021 | 40 | 307 | 0.0 | 0.0 | 0.00 | 0.53 | 0.00 | 89 | 1011.5 |
| 20260507070522 | 40 | 307 | 0.0 | 0.0 | 0.00 | 0.53 | 0.00 | 89 | 1011.4 |
| 20260507070021 | 40 | 307 | 0.0 | 0.0 | 0.00 | 0.53 | 0.00 | 89 | 1011.4 |
| 20260507065521 | 40 | 307 | 0.0 | 0.0 | 0.00 | 0.53 | 0.00 | 89 | 1011.4 |
| 20260507065021 | 40 | 307 | 0.0 | 0.0 | 0.00 | 0.53 | 0.00 | 89 | 1011.5 |
| 20260507064521 | 40 | 307 | 0.0 | 1.7 | 0.00 | 0.53 | 0.00 | 89 | 1011.5 |
| 20260507064021 | 40 | 307 | 0.0 | 1.7 | 0.00 | 0.53 | 0.00 | 89 | 1011.5 |
| 20260507063521 | 40 | 307 | 0.0 | 2.6 | 0.00 | 0.53 | 0.00 | 89 | 1011.6 |
| 20260507063021 | 40 | 307 | 0.0 | 4.3 | 0.00 | 0.53 | 0.00 | 89 | 1011.7 |
| 20260507062523 | 40 | 307 | 1.7 | 4.3 | 0.00 | 0.53 | 0.00 | 89 | 1011.7 |
| 20260507062021 | 40 | 313 | 0.9 | 2.6 | 0.00 | 0.53 | 0.00 | 89 | 1011.7 |
| 20260507061522 | 40 | 313 | 0.0 | 4.3 | 0.00 | 0.54 | 0.00 | 89 | 1011.8 |
| 20260507061020 | 40 | 313 | 0.9 | 4.3 | 0.00 | 0.54 | 0.00 | 89 | 1012.0 |
| 20260507060521 | 40 | 302 | 0.9 | 3.5 | 0.00 | 0.54 | 0.00 | 89 | 1011.8 |
| 20260507060257 | 40 | 292 | 0.0 | 1.7 | 0.00 | 0.54 | 0.00 | 89 | 1011.5 |
| 20260507055521 | 40 | 274 | 0.0 | 0.9 | 0.00 | 0.54 | 0.00 | 89 | 1011.4 |
| 20260507055022 | 40 | 274 | 0.0 | 0.9 | 0.00 | 0.54 | 0.00 | 88 | 1011.6 |
| 20260507054521 | 40 | 274 | 0.0 | 0.9 | 0.00 | 0.54 | 0.00 | 88 | 1011.7 |
| 20260507054258 | 40 | 274 | 0.0 | 0.9 | 0.00 | 0.54 | 0.00 | 88 | 1011.7 |
| 20260507053522 | 40 | 274 | 0.0 | 1.7 | 0.00 | 0.54 | 0.00 | 88 | 1011.7 |
| 20260507053021 | 40 | 274 | 0.9 | 1.7 | 0.00 | 0.54 | 0.00 | 88 | 1011.9 |
| 20260507052756 | 41 | 274 | 0.0 | 0.9 | 0.00 | 0.54 | 0.00 | 88 | 1011.8 |
| 20260507052021 | 41 | 274 | 0.0 | 0.9 | 0.00 | 0.54 | 0.00 | 88 | 1011.8 |
| 20260507051521 | 41 | 274 | 0.0 | 0.9 | 0.00 | 0.54 | 0.00 | 88 | 1011.7 |
| 20260507051021 | 41 | 274 | 0.0 | 0.9 | 0.00 | 0.54 | 0.00 | 88 | 1011.7 |
| 20260507050801 | 41 | 274 | 0.0 | 3.5 | 0.00 | 0.54 | 0.00 | 87 | 1011.8 |
| 20260507050043 | 41 | 302 | 0.9 | 3.5 | 0.00 | 0.54 | 0.00 | 87 | 1011.8 |
| 20260507050035 | 41 | 274 | 0.0 | 3.5 | 0.00 | 0.54 | 0.00 | 87 | 1011.8 |
| 20260507045021 | 41 | 302 | 1.7 | 4.3 | 0.00 | 0.54 | 0.00 | 87 | 1011.9 |
| 20260507044757 | 41 | 302 | 2.6 | 6.1 | 0.00 | 0.54 | 0.00 | 87 | 1011.8 |
| 20260507044228 | 41 | 281 | 3.5 | 6.1 | 0.00 | 0.54 | 0.00 | 86 | 1011.8 |
| 20260507043020 | 41 | 296 | 2.6 | 5.2 | 0.00 | 0.54 | 0.00 | 87 | 1011.8 |
| 20260507043012 | 42 | 300 | 3.5 | 6.1 | 0.00 | 0.54 | 0.00 | 87 | 1011.7 |
| 20260507041521 | 42 | 298 | 3.5 | 6.1 | 0.00 | 0.54 | 0.00 | 87 | 1011.7 |
| 20260507041021 | 42 | 269 | 5.2 | 6.1 | 0.00 | 0.54 | 0.00 | 87 | 1011.7 |
| 20260507040754 | 42 | 303 | 2.6 | 5.2 | 0.00 | 0.54 | 0.00 | 87 | 1011.6 |
| 20260507040022 | 42 | 293 | 2.6 | 4.3 | 0.00 | 0.54 | 0.00 | 87 | 1011.7 |
| 20260507035757 | 42 | 278 | 1.7 | 5.2 | 0.00 | 0.54 | 0.54 | 87 | 1011.6 |
| 20260507035254 | 42 | 288 | 3.5 | 5.2 | 0.00 | 0.54 | 0.54 | 86 | 1011.7 |
| 20260507034521 | 42 | 278 | 2.6 | 5.2 | 0.00 | 0.54 | 0.54 | 86 | 1011.5 |
| 20260507034021 | 42 | 282 | 3.5 | 5.2 | 0.00 | 0.54 | 0.54 | 85 | 1011.4 |
| 20260507033543 | 42 | 275 | 2.6 | 5.2 | 0.00 | 0.54 | 0.54 | 84 | 1011.2 |
| 20260507033535 | 42 | 275 | 1.7 | 5.2 | 0.00 | 0.54 | 0.54 | 85 | 1011.3 |
| 20260507032520 | 42 | 271 | 2.6 | 9.6 | 0.00 | 0.54 | 0.54 | 84 | 1011.0 |
| 20260507032021 | 42 | 282 | 3.5 | 9.6 | 0.00 | 0.54 | 0.54 | 83 | 1010.9 |
| 20260507031759 | 43 | 252 | 4.3 | 8.7 | 0.00 | 0.54 | 0.54 | 83 | 1010.9 |
| 20260507030520 | 43 | 265 | 3.5 | 10.4 | 0.00 | 0.54 | 0.54 | 84 | 1010.9 |
| 20260507030024 | 43 | 310 | 3.5 | 11.3 | 0.00 | 0.54 | 0.54 | 84 | 1010.9 |
| 20260507030020 | 43 | 276 | 5.2 | 11.3 | 0.00 | 0.54 | 0.54 | 85 | 1011.2 |
| 20260507025022 | 43 | 298 | 3.5 | 11.3 | 0.00 | 0.54 | 0.54 | 86 | 1011.1 |
| 20260507024753 | 43 | 288 | 7.0 | 13.9 | 0.00 | 0.54 | 0.54 | 87 | 1011.2 |
| 20260507024302 | 44 | 288 | 7.8 | 13.9 | 0.00 | 0.54 | 0.54 | 88 | 1011.1 |
| 20260507023521 | 44 | 292 | 5.2 | 13.0 | 0.00 | 0.54 | 0.54 | 89 | 1011.2 |
| 20260507023021 | 44 | 312 | 5.2 | 13.9 | 0.00 | 0.54 | 0.54 | 90 | 1011.2 |
| 20260507022523 | 44 | 272 | 7.8 | 13.9 | 0.00 | 0.54 | 0.54 | 91 | 1011.2 |
| 20260507022021 | 44 | 289 | 5.2 | 10.4 | 0.00 | 0.54 | 0.54 | 93 | 1011.3 |
| 20260507021556 | 45 | 300 | 4.3 | 11.3 | 0.00 | 0.54 | 0.54 | 94 | 1011.3 |
| 20260507021544 | 44 | 275 | 6.1 | 10.4 | 0.00 | 0.54 | 0.54 | 93 | 1011.3 |
| 20260507020510 | 45 | 295 | 7.8 | 13.0 | 0.00 | 0.54 | 0.54 | 94 | 1011.2 |
| 20260507015520 | 45 | 285 | 4.3 | 12.2 | 0.00 | 0.54 | 0.54 | 94 | 1011.1 |
| 20260507015020 | 45 | 285 | 3.5 | 4.3 | 0.00 | 0.54 | 0.54 | 94 | 1011.5 |
| 20260507014521 | 45 | 269 | 1.7 | 3.5 | 0.00 | 0.54 | 0.54 | 94 | 1011.3 |
| 20260507014020 | 45 | 269 | 1.7 | 3.5 | 0.00 | 0.54 | 0.54 | 93 | 1011.2 |
| 20260507013521 | 45 | 269 | 1.7 | 3.5 | 0.00 | 0.54 | 0.54 | 93 | 1011.3 |
| 20260507013021 | 45 | 269 | 1.7 | 3.5 | 0.00 | 0.54 | 0.54 | 93 | 1011.2 |
| 20260507012521 | 45 | 269 | 1.7 | 4.3 | 0.00 | 0.54 | 0.54 | 93 | 1011.1 |
| 20260507012021 | 45 | 250 | 2.6 | 4.3 | 0.00 | 0.54 | 0.54 | 93 | 1011.4 |
| 20260507011521 | 45 | 266 | 2.6 | 3.5 | 0.00 | 0.54 | 0.54 | 93 | 1011.4 |
| 20260507011020 | 45 | 266 | 0.9 | 3.5 | 0.00 | 0.54 | 0.54 | 93 | 1011.1 |
| 20260507010521 | 45 | 266 | 0.9 | 3.5 | 0.00 | 0.54 | 0.54 | 93 | 1011.2 |
| 20260507010021 | 45 | 274 | 0.9 | 2.6 | 0.00 | 0.54 | 0.54 | 92 | 1011.2 |
| 20260507005522 | 45 | 258 | 0.0 | 1.7 | 0.00 | 0.54 | 0.54 | 92 | 1011.1 |
| 20260507005040 | 45 | 258 | 0.0 | 0.0 | 0.00 | 0.54 | 0.54 | 92 | 1011.0 |
| 20260507005032 | 45 | 258 | 0.0 | 0.0 | 0.00 | 0.54 | 0.54 | 92 | 1011.0 |
| 20260507004020 | 45 | 258 | 0.0 | 0.0 | 0.00 | 0.54 | 0.54 | 92 | 1011.0 |
| 20260507003520 | 46 | 258 | 0.0 | 0.0 | 0.00 | 0.54 | 0.54 | 92 | 1011.0 |
| 20260507003021 | 46 | 282 | 0.0 | 0.0 | 0.00 | 0.54 | 0.54 | 92 | 1010.9 |
| 20260507002521 | 46 | 282 | 0.0 | 0.0 | 0.00 | 0.54 | 0.54 | 92 | 1010.8 |
| 20260507002020 | 46 | 282 | 0.0 | 0.0 | 0.00 | 0.54 | 0.54 | 92 | 1010.5 |
| 20260507001521 | 46 | 282 | 0.0 | 0.9 | 0.00 | 0.54 | 0.54 | 92 | 1010.6 |
| 20260507001022 | 46 | 282 | 0.0 | 0.9 | 0.00 | 0.54 | 0.54 | 92 | 1010.5 |
| 20260507000544 | 46 | 282 | 0.0 | 0.9 | 0.00 | 0.54 | 0.54 | 92 | 1010.5 |
| 20260507000536 | 46 | 282 | 0.0 | 0.9 | 0.00 | 0.54 | 0.54 | 92 | 1010.6 |
| 20260506235521 | 46 | 282 | 0.0 | 0.9 | 0.00 | 0.54 | 0.54 | 92 | 1010.5 |
| 20260506235021 | 46 | 282 | 0.0 | 0.9 | 0.00 | 0.54 | 0.54 | 92 | 1010.5 |
| 20260506234541 | 46 | 282 | 0.0 | 0.0 | 0.00 | 0.54 | 0.54 | 92 | 1010.1 |
| 20260506234535 | 46 | 282 | 0.0 | 0.0 | 0.00 | 0.54 | 0.54 | 92 | 1010.2 |
| 20260506233755 | 46 | 282 | 0.0 | 0.0 | 0.00 | 0.54 | 0.54 | 92 | 1010.1 |
| 20260506233254 | 46 | 282 | 0.0 | 0.0 | 0.00 | 0.54 | 0.54 | 92 | 1010.2 |
| 20260506232520 | 46 | 282 | 0.0 | 0.0 | 0.00 | 0.54 | 0.54 | 92 | 1010.1 |
| 20260506232020 | 46 | 282 | 0.0 | 2.6 | 0.00 | 0.54 | 0.54 | 92 | 1010.1 |
| 20260506231758 | 46 | 282 | 0.0 | 2.6 | 0.00 | 0.54 | 0.54 | 92 | 1010.1 |
| 20260506231021 | 46 | 266 | 0.0 | 0.0 | 0.00 | 0.54 | 0.54 | 92 | 1010.0 |
| 20260506230521 | 46 | 266 | 0.0 | 3.5 | 0.00 | 0.54 | 0.54 | 92 | 1010.2 |
| 20260506230020 | 46 | 266 | 0.0 | 3.5 | 0.00 | 0.54 | 0.54 | 92 | 1010.0 |
| 20260506225521 | 46 | 305 | 0.9 | 3.5 | 0.00 | 0.54 | 0.54 | 92 | 1010.0 |
| 20260506225020 | 47 | 306 | 1.7 | 3.5 | 0.00 | 0.54 | 0.54 | 92 | 1009.9 |
| 20260506224520 | 47 | 6 | 0.9 | 3.5 | 0.00 | 0.54 | 0.54 | 92 | 1009.9 |
| 20260506224020 | 46 | 290 | 0.9 | 3.5 | 0.00 | 0.54 | 0.54 | 92 | 1010.0 |
| 20260506223520 | 46 | 296 | 0.9 | 4.3 | 0.00 | 0.54 | 0.54 | 92 | 1010.0 |
| 20260506223020 | 46 | 300 | 3.5 | 4.3 | 0.00 | 0.54 | 0.54 | 92 | 1009.9 |
| 20260506222755 | 46 | 282 | 0.9 | 2.6 | 0.00 | 0.54 | 0.54 | 92 | 1009.9 |
| 20260506222021 | 46 | 282 | 0.0 | 2.6 | 0.00 | 0.54 | 0.54 | 92 | 1009.8 |
| 20260506221520 | 46 | 305 | 0.0 | 3.5 | 0.00 | 0.54 | 0.54 | 92 | 1009.7 |
| 20260506221020 | 46 | 314 | 1.7 | 3.5 | 0.00 | 0.54 | 0.54 | 92 | 1009.6 |
| 20260506220520 | 46 | 302 | 0.9 | 2.6 | 0.00 | 0.54 | 0.54 | 92 | 1009.8 |
| 20260506220020 | 47 | 319 | 0.9 | 2.6 | 0.00 | 0.54 | 0.54 | 92 | 1009.6 |
| 20260506215520 | 47 | 316 | 0.0 | 3.5 | 0.00 | 0.54 | 0.54 | 92 | 1009.6 |
| 20260506215020 | 47 | 341 | 0.9 | 4.3 | 0.00 | 0.54 | 0.54 | 92 | 1009.7 |
| 20260506214520 | 47 | 305 | 0.9 | 4.3 | 0.00 | 0.55 | 0.54 | 92 | 1009.7 |
| 20260506214020 | 47 | 175 | 0.0 | 3.5 | 0.00 | 0.55 | 0.54 | 92 | 1009.5 |
| 20260506213522 | 47 | 142 | 0.9 | 4.3 | 0.00 | 0.56 | 0.54 | 92 | 1009.3 |
| 20260506213022 | 47 | 286 | 0.9 | 4.3 | 0.00 | 0.57 | 0.54 | 92 | 1009.4 |
| 20260506212520 | 47 | 305 | 0.0 | 4.3 | 0.00 | 0.57 | 0.54 | 93 | 1009.4 |
| 20260506212020 | 47 | 296 | 0.9 | 3.5 | 0.00 | 0.57 | 0.54 | 93 | 1009.4 |
| 20260506211754 | 47 | 307 | 0.0 | 4.3 | 0.00 | 0.57 | 0.54 | 93 | 1009.4 |
| 20260506211020 | 47 | 317 | 0.9 | 6.1 | 0.00 | 0.57 | 0.54 | 93 | 1009.4 |
| 20260506210520 | 47 | 266 | 0.9 | 6.1 | 0.00 | 0.57 | 0.54 | 93 | 1009.3 |
| 20260506210020 | 47 | 271 | 0.9 | 5.2 | 0.00 | 0.57 | 0.54 | 93 | 1009.3 |
| 20260506205520 | 47 | 320 | 1.7 | 6.1 | 0.00 | 0.57 | 0.54 | 94 | 1009.3 |
| 20260506205021 | 47 | 295 | 2.6 | 6.1 | 0.00 | 0.57 | 0.54 | 94 | 1009.2 |
| 20260506204757 | 47 | 276 | 0.9 | 5.2 | 0.00 | 0.57 | 0.54 | 94 | 1009.1 |
| 20260506204020 | 47 | 314 | 1.7 | 5.2 | 0.00 | 0.57 | 0.54 | 94 | 1009.1 |
| 20260506203757 | 47 | 223 | 1.7 | 7.8 | 0.00 | 0.57 | 0.54 | 94 | 1009.1 |
| 20260506203516 | 47 | 310 | 2.6 | 7.8 | 0.00 | 0.57 | 0.54 | 95 | 1009.1 |
| 20260506202749 | 47 | 274 | 1.7 | 5.2 | 0.00 | 0.57 | 0.54 | 94 | 1009.0 |
| 20260506202020 | 47 | 282 | 2.6 | 5.2 | 0.00 | 0.57 | 0.54 | 94 | 1008.9 |
| 20260506201519 | 46 | 305 | 0.9 | 5.2 | 0.00 | 0.57 | 0.54 | 94 | 1008.8 |
| 20260506201257 | 46 | 313 | 1.7 | 5.2 | 0.00 | 0.57 | 0.54 | 94 | 1008.9 |
| 20260506200521 | 46 | 317 | 0.9 | 4.3 | 0.00 | 0.57 | 0.54 | 94 | 1008.8 |
| 20260506200246 | 46 | 298 | 0.0 | 4.3 | 0.00 | 0.57 | 0.54 | 94 | 1008.8 |
| 20260506195756 | 46 | 305 | 1.7 | 4.3 | 0.00 | 0.57 | 0.54 | 94 | 1008.8 |
| 20260506195020 | 46 | 326 | 1.7 | 5.2 | 0.00 | 0.57 | 0.54 | 94 | 1008.8 |
| 20260506194520 | 46 | 323 | 3.5 | 5.2 | 0.00 | 0.57 | 0.54 | 94 | 1008.7 |
| 20260506194021 | 46 | 289 | 1.7 | 6.1 | 0.00 | 0.57 | 0.54 | 94 | 1008.8 |
| 20260506193520 | 46 | 341 | 3.5 | 6.1 | 0.00 | 0.57 | 0.54 | 94 | 1008.7 |
| 20260506193020 | 46 | 307 | 1.7 | 5.2 | 0.00 | 0.57 | 0.54 | 94 | 1008.6 |
| 20260506192755 | 46 | 288 | 1.7 | 5.2 | 0.00 | 0.57 | 0.54 | 94 | 1008.4 |
| 20260506192254 | 46 | 17 | 2.6 | 5.2 | 0.00 | 0.57 | 0.54 | 95 | 1008.2 |
| 20260506191530 | 46 | 354 | 2.6 | 7.8 | 0.00 | 0.57 | 0.54 | 95 | 1008.1 |
| 20260506191520 | 46 | 295 | 2.6 | 7.8 | 0.00 | 0.57 | 0.54 | 95 | 1008.2 |
| 20260506190520 | 46 | 323 | 1.7 | 4.3 | 0.00 | 0.57 | 0.54 | 94 | 1008.5 |
| 20260506190514 | 46 | 279 | 1.7 | 5.2 | 0.00 | 0.57 | 0.54 | 94 | 1008.5 |
| 20260506185520 | 46 | 292 | 3.5 | 5.2 | 0.00 | 0.57 | 0.54 | 94 | 1008.5 |
| 20260506185255 | 46 | 299 | 1.7 | 5.2 | 0.00 | 0.57 | 0.54 | 95 | 1008.4 |
| 20260506184520 | 46 | 227 | 1.7 | 5.2 | 0.00 | 0.57 | 0.54 | 94 | 1008.2 |
| 20260506184020 | 46 | 334 | 2.6 | 5.2 | 0.00 | 0.57 | 0.54 | 95 | 1008.1 |
| 20260506183754 | 46 | 331 | 1.7 | 6.1 | 0.00 | 0.57 | 0.54 | 95 | 1008.1 |
| 20260506183037 | 45 | 344 | 2.6 | 5.2 | 0.01 | 0.58 | 0.54 | 94 | 1008.2 |
| 20260506183031 | 45 | 286 | 3.5 | 6.1 | 0.01 | 0.58 | 0.54 | 94 | 1008.2 |
| 20260506182245 | 45 | 333 | 1.7 | 4.3 | 0.01 | 0.60 | 0.54 | 94 | 1008.2 |
| 20260506181525 | 45 | 305 | 3.5 | 6.1 | 0.01 | 0.67 | 0.54 | 94 | 1008.2 |
| 20260506181521 | 45 | 326 | 2.6 | 6.1 | 0.01 | 0.67 | 0.54 | 94 | 1008.2 |
| 20260506180529 | 45 | 306 | 1.7 | 7.8 | 0.01 | 0.68 | 0.54 | 94 | 1008.2 |
| 20260506180019 | 45 | 312 | 1.7 | 8.7 | 0.01 | 0.68 | 0.54 | 94 | 1008.0 |
| 20260506175521 | 46 | 295 | 3.5 | 8.7 | 0.01 | 0.67 | 0.54 | 94 | 1007.9 |
| 20260506175023 | 46 | 296 | 1.7 | 4.3 | 0.01 | 0.67 | 0.54 | 94 | 1007.9 |
| 20260506174520 | 46 | 319 | 1.7 | 4.3 | 0.02 | 0.67 | 0.54 | 94 | 1007.8 |
| 20260506174300 | 46 | 0 | 0.9 | 6.1 | 0.02 | 0.67 | 0.54 | 94 | 1007.7 |
| 20260506173020 | 46 | 264 | 0.9 | 2.6 | 0.01 | 0.67 | 0.53 | 94 | 1007.4 |
| 20260506172755 | 46 | 274 | 1.7 | 5.2 | 0.01 | 0.67 | 0.53 | 94 | 1007.5 |
| 20260506172042 | 45 | 326 | 0.9 | 5.2 | 0.01 | 0.67 | 0.53 | 94 | 1007.4 |
| 20260506172034 | 46 | 265 | 0.9 | 5.2 | 0.01 | 0.67 | 0.53 | 95 | 1007.4 |
| 20260506171020 | 45 | 341 | 1.7 | 5.2 | 0.02 | 0.67 | 0.53 | 94 | 1007.4 |
| 20260506170755 | 45 | 262 | 0.9 | 6.1 | 0.02 | 0.67 | 0.53 | 94 | 1007.4 |
| 20260506170247 | 45 | 310 | 0.9 | 6.1 | 0.02 | 0.67 | 0.53 | 94 | 1007.4 |
| 20260506165521 | 45 | 317 | 1.7 | 5.2 | 0.02 | 0.65 | 0.53 | 94 | 1007.5 |
| 20260506165020 | 45 | 76 | 1.7 | 6.1 | 0.03 | 0.65 | 0.53 | 94 | 1007.4 |
| 20260506164519 | 45 | 336 | 0.9 | 6.1 | 0.02 | 0.65 | 0.52 | 94 | 1007.4 |
| 20260506164020 | 45 | 354 | 1.7 | 5.2 | 0.02 | 0.65 | 0.52 | 94 | 1007.4 |
| 20260506163754 | 44 | 61 | 1.7 | 6.1 | 0.02 | 0.65 | 0.52 | 94 | 1007.3 |
| 20260506163020 | 44 | 309 | 0.9 | 6.1 | 0.02 | 0.65 | 0.52 | 94 | 1007.5 |
| 20260506162730 | 44 | 334 | 1.7 | 5.2 | 0.02 | 0.65 | 0.52 | 94 | 1007.5 |
| 20260506161520 | 44 | 288 | 0.9 | 6.1 | 0.02 | 0.65 | 0.52 | 94 | 1007.6 |
| 20260506161317 | 44 | 275 | 0.9 | 6.1 | 0.02 | 0.65 | 0.51 | 94 | 1007.4 |
| 20260506161313 | 44 | 240 | 2.6 | 6.1 | 0.02 | 0.65 | 0.51 | 94 | 1007.5 |
| 20260506160253 | 44 | 330 | 1.7 | 6.1 | 0.03 | 0.65 | 0.51 | 94 | 1007.4 |
| 20260506155520 | 44 | 330 | 0.9 | 8.7 | 0.03 | 0.62 | 0.51 | 94 | 1007.4 |
| 20260506155019 | 44 | 300 | 1.7 | 8.7 | 0.03 | 0.62 | 0.50 | 93 | 1007.3 |
| 20260506154519 | 44 | 351 | 1.7 | 4.3 | 0.03 | 0.62 | 0.50 | 93 | 1007.1 |
| 20260506154020 | 44 | 264 | 1.7 | 4.3 | 0.04 | 0.62 | 0.50 | 93 | 1007.1 |
| 20260506153519 | 44 | 354 | 0.9 | 4.3 | 0.06 | 0.62 | 0.50 | 93 | 1006.8 |
| 20260506153058 | 44 | 321 | 1.7 | 5.2 | 0.08 | 0.62 | 0.50 | 93 | 1006.7 |
| 20260506153024 | 44 | 326 | 0.9 | 5.2 | 0.08 | 0.62 | 0.50 | 93 | 1006.8 |
| 20260506151525 | 44 | 185 | 1.7 | 5.2 | 0.09 | 0.62 | 0.49 | 92 | 1006.8 |
| 20260506151521 | 44 | 338 | 2.6 | 5.2 | 0.09 | 0.62 | 0.50 | 92 | 1006.8 |
| 20260506150520 | 44 | 348 | 1.7 | 7.8 | 0.09 | 0.62 | 0.49 | 92 | 1006.7 |
| 20260506150019 | 44 | 7 | 1.7 | 7.8 | 0.09 | 0.62 | 0.48 | 92 | 1006.7 |
| 20260506145755 | 44 | 217 | 1.7 | 5.2 | 0.09 | 0.53 | 0.48 | 92 | 1006.8 |
| 20260506145019 | 44 | 354 | 0.9 | 6.1 | 0.09 | 0.53 | 0.47 | 91 | 1006.7 |
| 20260506144753 | 44 | 237 | 2.6 | 7.8 | 0.09 | 0.53 | 0.47 | 91 | 1006.8 |
| 20260506144253 | 45 | 247 | 1.7 | 7.8 | 0.09 | 0.53 | 0.46 | 91 | 1006.9 |
| 20260506144004 | 45 | 279 | 3.5 | 6.1 | 0.08 | 0.53 | 0.44 | 91 | 1006.9 |
| 20260506143019 | 45 | 78 | 1.7 | 5.2 | 0.07 | 0.53 | 0.42 | 91 | 1006.6 |
| 20260506142520 | 46 | 259 | 1.7 | 8.7 | 0.08 | 0.53 | 0.42 | 90 | 1006.5 |
| 20260506142020 | 46 | 290 | 2.6 | 8.7 | 0.07 | 0.53 | 0.41 | 90 | 1006.2 |
| 20260506141519 | 46 | 354 | 3.5 | 7.8 | 0.08 | 0.53 | 0.41 | 90 | 1005.9 |
| 20260506141019 | 47 | 319 | 1.7 | 7.8 | 0.08 | 0.53 | 0.40 | 90 | 1005.9 |
| 20260506140519 | 47 | 340 | 1.7 | 7.8 | 0.08 | 0.53 | 0.40 | 90 | 1005.8 |
| 20260506140256 | 47 | 54 | 2.6 | 7.8 | 0.08 | 0.53 | 0.39 | 89 | 1005.8 |
| 20260506135740 | 48 | 344 | 3.5 | 5.2 | 0.09 | 0.45 | 0.39 | 89 | 1005.7 |
| 20260506135019 | 49 | 55 | 1.7 | 5.2 | 0.08 | 0.45 | 0.38 | 89 | 1005.8 |
| 20260506134520 | 49 | 62 | 1.7 | 6.1 | 0.09 | 0.45 | 0.38 | 89 | 1005.9 |
| 20260506134019 | 50 | 348 | 2.6 | 7.8 | 0.10 | 0.45 | 0.37 | 89 | 1006.1 |
| 20260506133757 | 51 | 302 | 2.6 | 7.8 | 0.10 | 0.45 | 0.36 | 89 | 1006.0 |
| 20260506133019 | 52 | 292 | 3.5 | 7.8 | 0.10 | 0.45 | 0.35 | 89 | 1006.0 |
| 20260506132755 | 53 | 114 | 1.7 | 5.2 | 0.10 | 0.45 | 0.34 | 91 | 1006.1 |
| 20260506132020 | 54 | 30 | 3.5 | 5.2 | 0.12 | 0.45 | 0.33 | 92 | 1006.1 |
| 20260506131818 | 55 | 292 | 0.0 | 3.5 | 0.13 | 0.45 | 0.32 | 94 | 1006.0 |
| 20260506131812 | 54 | 165 | 0.9 | 3.5 | 0.12 | 0.45 | 0.33 | 93 | 1006.0 |
| 20260506130519 | 55 | 306 | 1.7 | 5.2 | 0.14 | 0.45 | 0.32 | 94 | 1005.9 |
| 20260506130020 | 55 | 248 | 1.7 | 7.8 | 0.14 | 0.45 | 0.31 | 94 | 1005.9 |
| 20260506125519 | 55 | 185 | 4.3 | 7.8 | 0.14 | 0.31 | 0.30 | 94 | 1005.9 |
| 20260506125019 | 55 | 274 | 3.5 | 7.8 | 0.15 | 0.31 | 0.30 | 94 | 1005.9 |
| 20260506124520 | 55 | 199 | 5.2 | 12.2 | 0.14 | 0.31 | 0.29 | 94 | 1006.1 |
| 20260506124021 | 55 | 204 | 3.5 | 12.2 | 0.13 | 0.31 | 0.27 | 94 | 1006.1 |
| 20260506123519 | 55 | 173 | 3.5 | 11.3 | 0.12 | 0.31 | 0.26 | 94 | 1006.2 |
| 20260506123020 | 55 | 227 | 5.2 | 11.3 | 0.12 | 0.31 | 0.25 | 94 | 1006.2 |
| 20260506122519 | 55 | 204 | 4.3 | 12.2 | 0.11 | 0.31 | 0.24 | 94 | 1006.1 |
| 20260506122020 | 55 | 210 | 4.3 | 12.2 | 0.09 | 0.31 | 0.22 | 94 | 1006.0 |
| 20260506121520 | 55 | 231 | 5.2 | 9.6 | 0.08 | 0.31 | 0.21 | 94 | 1006.4 |
| 20260506121019 | 55 | 206 | 4.3 | 11.3 | 0.07 | 0.31 | 0.19 | 94 | 1006.2 |
| 20260506120519 | 55 | 206 | 5.2 | 11.3 | 0.06 | 0.31 | 0.18 | 94 | 1006.2 |
| 20260506120037 | 55 | 206 | 3.5 | 7.8 | 0.04 | 0.26 | 0.16 | 94 | 1005.9 |
| 20260506120031 | 55 | 252 | 4.3 | 10.4 | 0.05 | 0.31 | 0.17 | 94 | 1006.1 |
| 20260506115019 | 55 | 169 | 2.6 | 8.7 | 0.03 | 0.26 | 0.15 | 94 | 1005.8 |
| 20260506114519 | 55 | 209 | 5.2 | 9.6 | 0.04 | 0.26 | 0.15 | 94 | 1005.8 |
| 20260506114019 | 55 | 196 | 3.5 | 9.6 | 0.03 | 0.26 | 0.14 | 94 | 1005.7 |
| 20260506113519 | 55 | 182 | 3.5 | 8.7 | 0.04 | 0.26 | 0.14 | 94 | 1005.7 |
| 20260506113019 | 55 | 186 | 4.3 | 8.7 | 0.03 | 0.26 | 0.13 | 94 | 1005.7 |
| 20260506112758 | 55 | 127 | 5.2 | 9.6 | 0.03 | 0.26 | 0.13 | 94 | 1005.7 |
| 20260506112020 | 55 | 200 | 4.3 | 13.0 | 0.04 | 0.26 | 0.13 | 94 | 1005.7 |
| 20260506111519 | 55 | 227 | 6.1 | 13.0 | 0.04 | 0.26 | 0.13 | 95 | 1005.7 |
| 20260506111019 | 55 | 206 | 6.1 | 10.4 | 0.03 | 0.26 | 0.12 | 95 | 1005.6 |
| 20260506110519 | 55 | 217 | 5.2 | 10.4 | 0.04 | 0.26 | 0.12 | 95 | 1005.7 |
| 20260506110019 | 54 | 212 | 6.1 | 13.0 | 0.04 | 0.26 | 0.12 | 95 | 1005.7 |
| 20260506105520 | 54 | 257 | 6.1 | 13.0 | 0.04 | 0.22 | 0.12 | 95 | 1005.5 |
| 20260506105019 | 54 | 238 | 5.2 | 13.9 | 0.04 | 0.22 | 0.12 | 95 | 1005.6 |
| 20260506104519 | 54 | 235 | 6.1 | 13.9 | 0.03 | 0.22 | 0.11 | 95 | 1005.5 |
| 20260506104019 | 54 | 176 | 7.0 | 13.9 | 0.03 | 0.22 | 0.11 | 95 | 1005.6 |
| 20260506103754 | 53 | 179 | 6.1 | 13.9 | 0.02 | 0.22 | 0.10 | 96 | 1005.7 |
| 20260506103020 | 53 | 204 | 7.0 | 12.2 | 0.03 | 0.22 | 0.10 | 95 | 1005.8 |
| 20260506102519 | 53 | 190 | 7.0 | 13.0 | 0.03 | 0.22 | 0.10 | 96 | 1005.9 |
| 20260506102257 | 52 | 209 | 7.0 | 13.0 | 0.02 | 0.22 | 0.09 | 96 | 1005.9 |
| 20260506101519 | 52 | 179 | 3.5 | 7.8 | 0.03 | 0.22 | 0.09 | 95 | 1005.9 |